[[{"header":{"parameterUnit":"m.s-1","parameterCategory":2,"la1":30.2991,"la2":30.254,"lo1":-89.0895,"lo2":-89.0444,"dy":0.0017,"dx":0.0017,"nx":28,"ny":28,"refTime":"2025-12-05T03:00:00:Z","depth":"0","parameterNumber":2,"parameterNumberName":"U-component_of_CURRENTS"},"data":[0,0,0,0,0,0,0,0,0,0,0,0,0,0,0,0,0,0,0,0,0,0,0,0,0,0,0,0,0,0,0,0,0,0,0,0,0,0,0,0,0,0,0,0,0,0,0,0,0,0,0,0,0,0,0,0,0,0,0.2414,0.2414,0,0.2395,0.2395,0.2394,0.2355,0.2354,0.2354,0.2353,0.2305,0.2304,0.2304,0,0,0,0,0,0,0,0,0,0,0,0,0,0.243,0.243,0.2414,0.2414,0.2414,0.2395,0.2395,0.2394,0.2355,0.2354,0.2353,0.2353,0.2305,0.2304,0.2303,0,0,0,0,0,0,0,0,0,0,0,0,0,0.2416,0.2429,0.2414,0.2393,0.2391,0.2395,0.2395,0.2394,0.2355,0.2354,0.2353,0.2352,0.2305,0.2304,0.2303,0.2315,0,0,0.23,0.23,0,0,0,0,0,0,0,0,0.2417,0.2416,0.2396,0.2395,0.2393,0.2378,0.2383,0.2367,0.2355,0.2367,0.2353,0.2352,0.2329,0.2326,0.2322,0.2313,0.2311,0.23,0.2299,0.2299,0.2299,0,0,0,0,0,0,0,0.2418,0.2416,0.2404,0.2396,0.2394,0.239,0.2387,0.238,0.2351,0.2366,0.2363,0.2365,0.2327,0.2323,0.232,0.231,0.23,0.2299,0.2298,0.2298,0.2328,0.2329,0,0,0,0,0,0,0.2425,0.2417,0.2405,0.2404,0.2405,0.2391,0.2387,0.2382,0.2352,0.2347,0.2365,0.2363,0.2325,0.2322,0.2318,0.2344,0.2299,0.2298,0.2297,0.2327,0.2328,0.233,0,0,0,0,0,0,0.2425,0.2424,0.2406,0.2412,0.241,0.2391,0.2386,0.2382,0.2381,0.2352,0.2346,0.2369,0.2324,0.232,0.2322,0.2341,0.2297,0.2296,0.2325,0.2327,0.2329,0.2387,0,0,0,0,0,0,0.2425,0.2424,0.2426,0.2412,0.241,0.2413,0.2387,0.2383,0.2384,0.238,0.2353,0.2347,0.2323,0.2324,0.2321,0.2339,0.2296,0.2323,0.2326,0.2328,0.2383,0.2391,0.2397,0,0,0,0,0,0.2426,0.2431,0.2426,0.2425,0.2412,0.2414,0.2412,0.2395,0.2385,0.2389,0.2375,0.2348,0.2339,0.2324,0.232,0.2339,0.2322,0.2325,0.2328,0.238,0.2389,0.2397,0,0,0,0,0,0,0.2438,0.2428,0.2421,0.2423,0.2422,0.2408,0.2413,0.2404,0.2397,0.2395,0.2364,0.2358,0.2369,0.2351,0.2335,0.2358,0.2327,0.233,0.2368,0.2377,0.2384,0.2391,0.2295,0,0,0,0,0,0.2444,0.2445,0.2437,0.244,0.2443,0.2432,0.2432,0.2423,0.2415,0.241,0.2392,0.2381,0.2381,0.2375,0.2369,0.238,0.2376,0.2391,0.2398,0.2404,0.241,0.2434,0.2443,0.234,0.234,0.234,0,0,0.2449,0.2446,0.2445,0.2444,0.2442,0.2451,0.2429,0.2436,0.2442,0.2408,0.2412,0.2405,0.239,0.2402,0.2405,0.2387,0.2433,0.2409,0.2414,0.2416,0.2438,0.2448,0.2457,0.2343,0.2342,0.2342,0,0,0.2462,0.2459,0.2465,0.247,0.2475,0.2471,0.2477,0.2471,0.2467,0.2477,0.2458,0.2467,0.2455,0.2453,0.2451,0.2496,0.2472,0.2493,0.2529,0.2553,0.2562,0.2569,0.2581,0.2588,0.2493,0.2493,0.2494,0,0.247,0.2472,0.2469,0.2481,0.2487,0.2484,0.2496,0.2499,0.2493,0.2502,0.2485,0.2499,0.2483,0.2508,0.252,0.2512,0.2516,0.2496,0.2562,0.2569,0.2576,0.2586,0.2594,0.2497,0.2496,0.2496,0.2496,0,0.2485,0.2492,0.2501,0.2511,0.2521,0.2533,0.2539,0.2551,0.255,0.2554,0.258,0.2568,0.2576,0.2577,0.2558,0.2601,0.2586,0.257,0.2539,0.259,0.2597,0.2604,0.2501,0.25,0.2499,0.2498,0,0,0.2484,0.2505,0.2508,0.2514,0.2538,0.2541,0.2573,0.2594,0.2616,0.2622,0.265,0.2659,0.2659,0.2657,0.2644,0.266,0.2708,0.2635,0.2635,0.2644,0.2755,0.2721,0.2725,0.2703,0.2705,0.2706,0.2742,0,0.2495,0.2513,0.2527,0.2549,0.2557,0.2577,0.2604,0.2628,0.2648,0.2676,0.2689,0.2707,0.2688,0.2693,0.2714,0.271,0.2729,0.2699,0.2707,0.2707,0.2668,0.2733,0.2657,0.2681,0.2749,0.275,0.2751,0,0.2499,0.2511,0.253,0.2559,0.2566,0.2583,0.2626,0.2651,0.2704,0.2724,0.2762,0.2766,0.2801,0.277,0.2808,0.2789,0.278,0.2774,0.2775,0.2727,0.2687,0.2641,0.2691,0.2661,0.2762,0.2761,0.276,0,0.2477,0.2509,0.252,0.253,0.2567,0.2584,0.261,0.2664,0.2698,0.2755,0.279,0.2829,0.2852,0.2859,0.2855,0.2833,0.289,0.2856,0.2819,0.2816,0.2745,0.2733,0.2762,0.2885,0.2885,0.2885,0.2885,0,0.2471,0.2478,0.2508,0.251,0.2535,0.2569,0.2609,0.2649,0.2718,0.276,0.281,0.2847,0.2877,0.2908,0.2888,0.2888,0.2922,0.2842,0.2832,0.2763,0.2752,0.2715,0.27,0.2886,0.2886,0.2886,0.2885,0,0.2439,0.2458,0.2471,0.2508,0.2521,0.2537,0.2605,0.2634,0.2713,0.2771,0.2791,0.2881,0.2919,0.2943,0.2961,0.2932,0.2855,0.2911,0.2824,0.2803,0.2718,0.2709,0.2601,0.2511,0.2873,0.2873,0.2872,0,0.2421,0.2424,0.2458,0.2462,0.2476,0.251,0.2534,0.2617,0.2655,0.2775,0.2796,0.2878,0.2921,0.2965,0.2934,0.2921,0.2835,0.2823,0.2765,0.2722,0.2705,0.2587,0.251,0.2695,0.2693,0.2691,0.269,0,0.2391,0.2403,0.2413,0.2424,0.2438,0.2462,0.2503,0.2537,0.2629,0.269,0.2765,0.282,0.2896,0.2866,0.2872,0.2842,0.2709,0.279,0.2773,0.2599,0.2445,0.235,0.2659,0.2677,0.2678,0.2679,0.268,0.268,0.2366,0.2363,0.2372,0.2375,0.2388,0.2389,0.2381,0.2437,0.2487,0.2548,0.2662,0.2718,0.2782,0.2791,0.2746,0.266,0.2614,0.2579,0.2582,0.2474,0.2354,0.2632,0.2619,0.262,0.2621,0.2622,0.2623,0,0.2321,0.2315,0.2318,0.2304,0.2278,0.2313,0.2333,0.231,0.2317,0.2434,0.2491,0.2572,0.2578,0.2607,0.2578,0.2486,0.2342,0.2418,0.2255,0.2194,0.2482,0.2445,0.236,0.236,0.236,0.236,0.236,0.236,0.2296,0.2268,0.2261,0.219,0.2175,0.2109,0.2096,0.209,0.2147,0.2191,0.2249,0.2338,0.2512,0.2573,0.2499,0.241,0.2218,0.2117,0.2087,0.2346,0.2361,0.2375,0.2338,0.2232,0.2232,0.1694,0.1691,0.1688]},{"header":{"parameterUnit":"m.s-1","parameterCategory":2,"la1":30.2991,"la2":30.254,"lo1":-89.0895,"lo2":-89.0444,"dy":0.0017,"dx":0.0017,"nx":28,"ny":28,"refTime":"2025-12-05T03:00:00:Z","depth":"0","parameterNumber":3,"parameterNumberName":"V-component_of_CURRENTS"},"data":[0,0,0,0,0,0,0,0,0,0,0,0,0,0,0,0,0,0,0,0,0,0,0,0,0,0,0,0,0,0,0,0,0,0,0,0,0,0,0,0,0,0,0,0,0,0,0,0,0,0,0,0,0,0,0,0,0,0,-0.0001,-0.0001,0,-0.0029,-0.0029,-0.003,-0.0048,-0.0048,-0.0048,-0.0048,-0.0078,-0.0079,-0.008,0,0,0,0,0,0,0,0,0,0,0,0,0,-0.0008,-0.0008,-0.0001,-0.0001,-0.0002,-0.0029,-0.0029,-0.003,-0.0047,-0.0048,-0.0048,-0.0048,-0.0078,-0.0079,-0.008,0,0,0,0,0,0,0,0,0,0,0,0,0,-0.0018,-0.0008,-0.0001,-0.0013,-0.0015,-0.0029,-0.0029,-0.003,-0.0047,-0.0048,-0.0048,-0.0048,-0.0078,-0.0079,-0.008,-0.0086,0,0,-0.0084,-0.0084,0,0,0,0,0,0,0,0,-0.0018,-0.0018,-0.0011,-0.0012,-0.0014,-0.0034,-0.0043,-0.0048,-0.0047,-0.0036,-0.0048,-0.0048,-0.0063,-0.0066,-0.0072,-0.0087,-0.0089,-0.0084,-0.0084,-0.0085,-0.0085,0,0,0,0,0,0,0,-0.0017,-0.0017,-0.0013,-0.0011,-0.0013,-0.0033,-0.0034,-0.0044,-0.0049,-0.0037,-0.0038,-0.004,-0.0064,-0.0071,-0.0073,-0.0089,-0.0084,-0.0085,-0.0085,-0.0086,-0.0108,-0.0107,0,0,0,0,0,0,-0.0009,-0.0016,-0.0012,-0.0014,-0.0015,-0.0032,-0.0034,-0.0028,-0.0049,-0.0052,-0.004,-0.0041,-0.0069,-0.0071,-0.0074,-0.0068,-0.0085,-0.0086,-0.0087,-0.0108,-0.0108,-0.0107,0,0,0,0,0,0,-0.0009,-0.0008,-0.0011,-0.0016,-0.0017,-0.0032,-0.0026,-0.0029,-0.0032,-0.0051,-0.0055,-0.0039,-0.0069,-0.0072,-0.0078,-0.007,-0.0087,-0.0088,-0.0108,-0.0108,-0.0107,-0.0065,0,0,0,0,0,0,-0.0009,-0.0008,-0.0004,-0.0015,-0.0016,-0.001,-0.0026,-0.0029,-0.0033,-0.0034,-0.0052,-0.0055,-0.0069,-0.0076,-0.0079,-0.0072,-0.0089,-0.0108,-0.0108,-0.0108,-0.0067,-0.0063,-0.0061,0,0,0,0,0,-0.0009,0.0002,-0.0003,-0.0003,-0.0009,-0.001,-0.0012,-0.0024,-0.0032,-0.0029,-0.0043,-0.0055,-0.0077,-0.0077,-0.0081,-0.0073,-0.0108,-0.0108,-0.0108,-0.0068,-0.0064,-0.0061,0,0,0,0,0,0,-0.0,0.0001,-0.0005,0.0005,0.0001,-0.0012,-0.0011,-0.0021,-0.003,-0.0033,-0.0052,-0.0056,-0.0059,-0.0073,-0.0072,-0.008,-0.0095,-0.0095,-0.0064,-0.006,-0.0057,-0.0038,-0.0089,0,0,0,0,0,0.0004,0.0013,0.0008,0.0015,0.0015,0.0002,-0.0002,-0.0009,-0.0018,-0.0023,-0.0036,-0.0051,-0.0062,-0.0066,-0.0079,-0.008,-0.0098,-0.0079,-0.0076,-0.0074,-0.0061,-0.0085,-0.0083,-0.0106,-0.0106,-0.0106,0,0,0.0008,0.001,0.0014,0.0017,0.0011,0.0023,-0.0,0.0,0.0008,-0.0024,-0.002,-0.0042,-0.0061,-0.0064,-0.0066,-0.0072,-0.0078,-0.0073,-0.0071,-0.006,-0.0085,-0.0082,-0.008,-0.0106,-0.0106,-0.0106,0,0,0.0027,0.0025,0.0041,0.0043,0.0041,0.0035,0.0039,0.0029,0.0023,0.0021,-0.0001,-0.0014,-0.003,-0.0041,-0.0048,-0.0037,-0.0063,-0.0045,-0.0011,-0.0034,-0.0032,-0.0031,-0.0056,-0.0057,-0.0041,-0.0041,-0.0041,0,0.0032,0.0056,0.0044,0.0063,0.0071,0.0047,0.0069,0.0059,0.0047,0.0049,0.0029,0.0004,-0.0017,-0.0014,-0.0013,-0.0029,-0.0048,-0.0022,-0.003,-0.0029,-0.0028,-0.0054,-0.0055,-0.0039,-0.0039,-0.004,-0.004,0,0.0069,0.0086,0.0096,0.0115,0.0119,0.0133,0.0124,0.012,0.0106,0.0099,0.0092,0.0056,0.0046,0.003,0.0012,0.0011,-0.0008,-0.0025,-0.0036,-0.0023,-0.0051,-0.0054,-0.0036,-0.0037,-0.0037,-0.0038,0,0,0.0091,0.0119,0.0123,0.0145,0.0151,0.0163,0.0169,0.0179,0.0196,0.0162,0.0178,0.0142,0.012,0.0109,0.0077,0.0054,0.0034,0.0021,0.0019,0.0002,-0.002,-0.0035,-0.004,0.0013,0.0013,0.0013,-0.0044,0,0.0127,0.0177,0.0178,0.0223,0.0251,0.0235,0.0251,0.0251,0.0243,0.0248,0.0202,0.0202,0.0151,0.0145,0.0113,0.0058,0.003,0.0051,-0.0035,-0.0037,-0.0048,-0.0042,-0.0032,-0.0082,-0.0047,-0.0047,-0.0048,0,0.017,0.0199,0.0252,0.0291,0.0302,0.032,0.0347,0.0361,0.0355,0.0347,0.0329,0.0292,0.0256,0.0206,0.0118,0.0133,0.0064,0.0012,0.0008,-0.0019,-0.0056,-0.009,-0.0088,-0.0219,-0.0052,-0.0052,-0.0051,0,0.0207,0.0254,0.0301,0.0315,0.0349,0.0364,0.0382,0.0392,0.0424,0.0413,0.0428,0.037,0.0349,0.0254,0.0139,0.0129,0.0036,0.0008,-0.0072,-0.0075,-0.0087,-0.0091,-0.0215,-0.0055,-0.0055,-0.0055,-0.0054,0,0.0254,0.0291,0.0322,0.0349,0.041,0.0413,0.0477,0.048,0.0505,0.0555,0.0488,0.0505,0.036,0.0286,0.0168,0.0044,0.0055,-0.006,-0.0087,-0.0074,-0.0075,-0.0206,-0.0291,-0.0057,-0.0056,-0.0056,-0.0055,0,0.0292,0.031,0.0371,0.0413,0.0431,0.0477,0.0546,0.0595,0.0603,0.0661,0.0659,0.0609,0.0513,0.0359,0.0207,0.0095,-0.0117,-0.0082,-0.0058,-0.0081,-0.0273,-0.0355,-0.0509,-0.0593,-0.0173,-0.0174,-0.0175,0,0.0318,0.0352,0.0422,0.0466,0.0489,0.0556,0.0609,0.0641,0.0704,0.0732,0.0769,0.069,0.0662,0.0431,0.0207,-0.0003,-0.0143,-0.0134,-0.0151,-0.0278,-0.039,-0.0447,-0.0511,-0.0158,-0.0159,-0.0159,-0.0159,0,0.037,0.0391,0.0443,0.0534,0.0597,0.068,0.0757,0.082,0.0862,0.0912,0.0958,0.0933,0.0707,0.0507,0.0208,0.0054,-0.0239,-0.0147,-0.0285,-0.0391,-0.0455,-0.0549,-0.0132,-0.0162,-0.0162,-0.0162,-0.0162,-0.0161,0.0408,0.0455,0.0521,0.0613,0.069,0.0791,0.0872,0.0959,0.1064,0.1141,0.1105,0.1105,0.0788,0.0392,0.0157,-0.0255,-0.0274,-0.0368,-0.0458,-0.0504,-0.0585,-0.0173,-0.0229,-0.0229,-0.0229,-0.0229,-0.0229,0,0.046,0.0512,0.0597,0.0703,0.0798,0.0829,0.0964,0.1053,0.1184,0.1249,0.1287,0.1129,0.0762,0.0359,-0.0195,-0.0493,-0.062,-0.067,-0.0753,-0.0806,-0.0439,-0.0437,-0.0531,-0.0531,-0.0531,-0.053,-0.053,-0.053,0.0486,0.0572,0.0616,0.0774,0.0852,0.0982,0.1065,0.1193,0.1282,0.1362,0.1355,0.1306,0.097,0.0031,-0.0624,-0.0786,-0.103,-0.1079,-0.1211,-0.0959,-0.0937,-0.0917,-0.0934,-0.113,-0.1131,-0.1528,-0.1532,-0.1535]}],[{"header":{"parameterUnit":"m.s-1","parameterCategory":2,"la1":30.2991,"la2":30.254,"lo1":-89.0895,"lo2":-89.0444,"dy":0.0017,"dx":0.0017,"nx":28,"ny":28,"refTime":"2025-12-05T03:00:00:Z","depth":"2","parameterNumber":2,"parameterNumberName":"U-component_of_CURRENTS"},"data":[0,0,0,0,0,0,0,0,0,0,0,0,0,0,0,0,0,0,0,0,0,0,0,0,0,0,0,0,0,0,0,0,0,0,0,0,0,0,0,0,0,0,0,0,0,0,0,0,0,0,0,0,0,0,0,0,0,0,0.23,0.23,0,0.2289,0.2288,0.2288,0.2259,0.2258,0.2258,0.2257,0.2221,0.222,0.222,0,0,0,0,0,0,0,0,0,0,0,0,0,0.2311,0.2311,0.23,0.23,0.23,0.2289,0.2288,0.2288,0.2259,0.2258,0.2258,0.2257,0.2221,0.222,0.222,0,0,0,0,0,0,0,0,0,0,0,0,0,0.2302,0.2311,0.23,0.2286,0.2285,0.2289,0.2288,0.2288,0.2259,0.2258,0.2258,0.2257,0.2221,0.222,0.222,0.2228,0,0,0.2217,0.2217,0,0,0,0,0,0,0,0,0.2302,0.2301,0.2288,0.2287,0.2286,0.2276,0.2279,0.2267,0.2259,0.2267,0.2257,0.2257,0.2239,0.2237,0.2233,0.2226,0.2224,0.2217,0.2216,0.2216,0.2216,0,0,0,0,0,0,0,0.2303,0.2302,0.2294,0.2288,0.2287,0.2285,0.2282,0.2276,0.2255,0.2266,0.2264,0.2266,0.2238,0.2234,0.2232,0.2224,0.2217,0.2216,0.2216,0.2215,0.225,0.2251,0,0,0,0,0,0,0.2308,0.2302,0.2294,0.2294,0.2295,0.2285,0.2282,0.2278,0.2255,0.2252,0.2267,0.2265,0.2236,0.2233,0.2231,0.2262,0.2216,0.2215,0.2215,0.2248,0.225,0.2252,0,0,0,0,0,0,0.2308,0.2307,0.2295,0.23,0.2298,0.2286,0.2281,0.2278,0.2282,0.2257,0.2252,0.2274,0.2235,0.2232,0.2238,0.2259,0.2215,0.2214,0.2247,0.2249,0.2251,0.2309,0,0,0,0,0,0,0.2309,0.2307,0.2312,0.23,0.2298,0.2304,0.2282,0.2279,0.2285,0.2282,0.2261,0.2257,0.2235,0.2239,0.2237,0.2257,0.2214,0.2245,0.2248,0.225,0.2305,0.2312,0.2319,0,0,0,0,0,0.2309,0.2315,0.2312,0.2312,0.2302,0.2304,0.2303,0.2291,0.2286,0.2291,0.2282,0.2258,0.2254,0.224,0.2237,0.2257,0.2244,0.2247,0.225,0.2302,0.2311,0.2319,0,0,0,0,0,0,0.2321,0.2312,0.2309,0.2311,0.2313,0.23,0.2308,0.2302,0.2299,0.23,0.2273,0.2268,0.2283,0.2266,0.2251,0.2277,0.2247,0.2249,0.2287,0.2296,0.2302,0.2309,0.2213,0,0,0,0,0,0.2327,0.2329,0.2323,0.2328,0.2331,0.2324,0.2326,0.232,0.2315,0.2313,0.2299,0.2292,0.2294,0.2291,0.2287,0.2299,0.2296,0.2313,0.232,0.2326,0.2331,0.2354,0.2364,0.2262,0.2262,0.2262,0,0,0.2333,0.2331,0.2331,0.2332,0.2332,0.2341,0.2323,0.2333,0.2341,0.2311,0.2321,0.2317,0.2304,0.2318,0.2324,0.2306,0.2354,0.233,0.2335,0.2337,0.2358,0.2368,0.2377,0.2264,0.2264,0.2263,0,0,0.2346,0.2346,0.2353,0.2358,0.2366,0.2364,0.2371,0.2368,0.2368,0.2381,0.2366,0.2378,0.2371,0.237,0.2368,0.2414,0.2392,0.2413,0.245,0.2473,0.2481,0.2488,0.25,0.2507,0.2414,0.2414,0.2414,0,0.2356,0.2359,0.2357,0.2369,0.2377,0.2377,0.239,0.2395,0.2394,0.2405,0.2392,0.2411,0.2398,0.2424,0.2438,0.243,0.2435,0.2416,0.2482,0.2489,0.2495,0.2505,0.2513,0.2417,0.2417,0.2417,0.2416,0,0.237,0.2379,0.2388,0.24,0.2411,0.2424,0.2432,0.2446,0.2452,0.2457,0.2488,0.2479,0.249,0.2492,0.2476,0.2519,0.2505,0.249,0.2459,0.2509,0.2516,0.2523,0.2422,0.2421,0.242,0.2419,0,0,0.2371,0.2392,0.2396,0.2403,0.2428,0.2433,0.2465,0.2489,0.2513,0.2525,0.2555,0.2568,0.2572,0.2571,0.256,0.2577,0.2624,0.2554,0.2554,0.2563,0.2672,0.2634,0.2638,0.2621,0.2622,0.2624,0.2659,0,0.2383,0.2401,0.2415,0.2438,0.2447,0.2469,0.2496,0.2523,0.2546,0.2577,0.2593,0.2616,0.26,0.2608,0.2629,0.2626,0.2646,0.2616,0.2624,0.2624,0.2582,0.2646,0.2413,0.2423,0.2665,0.2667,0.2667,0,0.2387,0.2399,0.242,0.2449,0.2458,0.2476,0.2522,0.2548,0.2603,0.2626,0.2667,0.2674,0.2711,0.2682,0.2721,0.2704,0.2696,0.2691,0.2691,0.264,0.26,0.2412,0.2426,0.2679,0.2678,0.2677,0.2676,0,0.2367,0.24,0.2413,0.2423,0.2461,0.2481,0.2508,0.2564,0.2599,0.2659,0.2695,0.2736,0.2762,0.2771,0.2768,0.2748,0.2803,0.277,0.2731,0.2727,0.2523,0.2499,0.2799,0.2799,0.2799,0.2799,0.2799,0,0.2362,0.2372,0.2403,0.2408,0.2436,0.2469,0.2514,0.2554,0.2624,0.2665,0.2718,0.2754,0.2788,0.2818,0.28,0.2798,0.2833,0.2753,0.2743,0.2537,0.2516,0.2727,0.2718,0.28,0.28,0.28,0.2799,0,0.2333,0.2353,0.2369,0.2408,0.2423,0.2443,0.2512,0.2543,0.2622,0.268,0.2702,0.2788,0.2827,0.2851,0.287,0.284,0.2833,0.2817,0.2575,0.2536,0.273,0.2724,0.2779,0.2778,0.2777,0.2776,0.2776,0,0.2316,0.2321,0.2359,0.2366,0.2383,0.2421,0.2446,0.253,0.2566,0.2684,0.2703,0.2784,0.282,0.2861,0.2807,0.2788,0.283,0.2561,0.2484,0.2749,0.2733,0.2728,0.2723,0.223,0.2225,0.2221,0.2218,0,0.2288,0.2303,0.2315,0.233,0.2349,0.2374,0.2417,0.2448,0.2539,0.2596,0.2665,0.2713,0.2762,0.2641,0.2636,0.2586,0.2548,0.2481,0.2818,0.2284,0.2238,0.222,0.2232,0.2182,0.2185,0.2188,0.219,0.2191,0.2266,0.2264,0.2277,0.2284,0.2301,0.2302,0.2295,0.234,0.2384,0.2413,0.253,0.2506,0.2508,0.2386,0.2296,0.2214,0.2393,0.2254,0.2263,0.2278,0.2222,0.2178,0.2099,0.2102,0.2104,0.2107,0.2109,0,0.222,0.222,0.2225,0.2215,0.2188,0.2231,0.2248,0.22,0.219,0.224,0.2267,0.2062,0.1989,0.1987,0.1811,0.1811,0.1764,0.1726,0.1625,0.1663,0.1697,0.1608,0.1324,0.1321,0.1319,0.1316,0,0,0.2195,0.2168,0.2161,0.2095,0.2088,0.2014,0.2,0.1943,0.1935,0.1864,0.1817,0.1923,0.1965,0.1624,0.157,0.1417,0.1533,0.1363,0.1997,0.1921,0.1951,0.2012,0.1921,0,0,0,0,0]},{"header":{"parameterUnit":"m.s-1","parameterCategory":2,"la1":30.2991,"la2":30.254,"lo1":-89.0895,"lo2":-89.0444,"dy":0.0017,"dx":0.0017,"nx":28,"ny":28,"refTime":"2025-12-05T03:00:00:Z","depth":"2","parameterNumber":3,"parameterNumberName":"V-component_of_CURRENTS"},"data":[0,0,0,0,0,0,0,0,0,0,0,0,0,0,0,0,0,0,0,0,0,0,0,0,0,0,0,0,0,0,0,0,0,0,0,0,0,0,0,0,0,0,0,0,0,0,0,0,0,0,0,0,0,0,0,0,0,0,0.0121,0.012,0,0.0094,0.0094,0.0093,0.0072,0.0071,0.0071,0.0071,0.004,0.0039,0.0038,0,0,0,0,0,0,0,0,0,0,0,0,0,0.011,0.011,0.0121,0.012,0.012,0.0094,0.0094,0.0093,0.0072,0.0071,0.0071,0.0071,0.004,0.0039,0.0038,0,0,0,0,0,0,0,0,0,0,0,0,0,0.0102,0.0111,0.0121,0.0106,0.0105,0.0094,0.0094,0.0093,0.0072,0.0071,0.0071,0.0071,0.004,0.0039,0.0038,0.0037,0,0,0.0035,0.0035,0,0,0,0,0,0,0,0,0.0102,0.0102,0.0109,0.0107,0.0106,0.0086,0.0078,0.0074,0.0072,0.0084,0.0071,0.0071,0.0055,0.0053,0.0048,0.0036,0.0034,0.0035,0.0034,0.0034,0.0034,0,0,0,0,0,0,0,0.0103,0.0103,0.0109,0.0109,0.0107,0.0087,0.0086,0.0077,0.0071,0.0083,0.0081,0.0079,0.0054,0.0049,0.0047,0.0034,0.0035,0.0034,0.0034,0.0033,0.0015,0.0015,0,0,0,0,0,0,0.011,0.0104,0.011,0.0109,0.0104,0.0088,0.0086,0.0092,0.0071,0.0068,0.0079,0.0078,0.0051,0.0048,0.0046,0.005,0.0034,0.0033,0.0032,0.0015,0.0015,0.0015,0,0,0,0,0,0,0.011,0.0111,0.0111,0.0105,0.0104,0.0089,0.0095,0.0092,0.0087,0.0069,0.0065,0.0078,0.0051,0.0047,0.0041,0.0049,0.0033,0.0032,0.0015,0.0015,0.0015,0.0055,0,0,0,0,0,0,0.011,0.0112,0.0115,0.0106,0.0105,0.0112,0.0095,0.0092,0.0086,0.0084,0.0066,0.0063,0.005,0.0043,0.004,0.0047,0.0031,0.0015,0.0015,0.0015,0.0053,0.0056,0.0059,0,0,0,0,0,0.011,0.0122,0.0116,0.0116,0.0112,0.0113,0.011,0.0097,0.0086,0.009,0.0075,0.0063,0.0042,0.0042,0.0039,0.0046,0.0015,0.0015,0.0015,0.0052,0.0056,0.0059,0,0,0,0,0,0,0.0118,0.012,0.0114,0.0125,0.0121,0.0109,0.011,0.01,0.009,0.0085,0.0067,0.0063,0.0058,0.0046,0.0047,0.004,0.0026,0.0025,0.0055,0.0058,0.0061,0.0078,0.003,0,0,0,0,0,0.0122,0.0131,0.0127,0.0135,0.0135,0.0121,0.0118,0.011,0.0101,0.0095,0.0082,0.0067,0.0057,0.0053,0.0041,0.0041,0.0023,0.0042,0.0045,0.0047,0.0058,0.0034,0.0036,0.0016,0.0016,0.0016,0,0,0.0125,0.0128,0.0132,0.0137,0.0131,0.0143,0.0119,0.0118,0.0126,0.0094,0.0097,0.0076,0.0058,0.0056,0.0053,0.0048,0.0041,0.0048,0.005,0.006,0.0034,0.0036,0.0038,0.0016,0.0016,0.0016,0,0,0.0145,0.0142,0.0159,0.0161,0.0159,0.0154,0.0156,0.0146,0.0139,0.0137,0.0115,0.0101,0.0087,0.0077,0.0071,0.0082,0.0055,0.0074,0.0106,0.0082,0.0083,0.0085,0.0058,0.0056,0.0078,0.0078,0.0078,0,0.0148,0.0173,0.0162,0.0181,0.0189,0.0164,0.0186,0.0176,0.0164,0.0165,0.0143,0.012,0.0099,0.0103,0.0104,0.009,0.0069,0.0096,0.0086,0.0087,0.0087,0.006,0.0058,0.008,0.0079,0.0079,0.0079,0,0.0186,0.0202,0.0213,0.0232,0.0237,0.025,0.0241,0.0236,0.022,0.0213,0.0204,0.0169,0.0159,0.0144,0.0127,0.0125,0.0106,0.0091,0.008,0.0092,0.0062,0.0059,0.0082,0.0082,0.0081,0.0081,0,0,0.0206,0.0236,0.0239,0.0261,0.0267,0.0279,0.0285,0.0295,0.031,0.0275,0.0288,0.0254,0.023,0.022,0.019,0.0166,0.0142,0.0133,0.0131,0.0112,0.0086,0.0069,0.0064,0.0123,0.0123,0.0122,0.0061,0,0.024,0.0291,0.0293,0.0338,0.0366,0.035,0.0366,0.0365,0.0355,0.0359,0.0312,0.0311,0.0261,0.0253,0.0221,0.0167,0.0138,0.0161,0.0073,0.0071,0.0059,0.0061,0.0087,0.0035,0.0058,0.0057,0.0057,0,0.0282,0.0312,0.0364,0.0404,0.0415,0.0432,0.0457,0.0471,0.0463,0.0453,0.0433,0.0396,0.0359,0.031,0.0221,0.0237,0.0168,0.0116,0.0112,0.0085,0.0049,0.0027,0.0028,0.0052,0.0052,0.0053,0.0053,0,0.0316,0.0364,0.041,0.0424,0.0459,0.0473,0.0491,0.0499,0.0529,0.0516,0.0528,0.0469,0.0446,0.0352,0.0237,0.0229,0.0133,0.0107,0.0027,0.0024,0.0025,0.0023,0.0043,0.0044,0.0044,0.0044,0.0044,0,0.0361,0.0397,0.0429,0.0455,0.0514,0.0519,0.0579,0.0581,0.0604,0.0651,0.0584,0.0598,0.0455,0.038,0.0264,0.0139,0.015,0.0036,0.001,0.0038,0.0038,0.0037,0.0038,0.0042,0.0042,0.0042,0.0043,0,0.0396,0.0414,0.0474,0.0516,0.0533,0.0577,0.0644,0.0692,0.0697,0.075,0.0748,0.0696,0.0596,0.0445,0.0293,0.0185,0.0059,0.0009,0.0048,0.0028,-0.0042,-0.0039,-0.0083,-0.0084,-0.0085,-0.0086,-0.0086,0,0.042,0.0453,0.0522,0.0564,0.0586,0.0651,0.0703,0.0734,0.0794,0.0817,0.0852,0.0769,0.0735,0.0503,0.0288,0.0082,0.0051,-0.0032,-0.0043,-0.0032,-0.0054,-0.005,-0.0046,-0.0033,-0.0033,-0.0033,-0.0034,0,0.0469,0.049,0.054,0.0628,0.0689,0.0771,0.0845,0.0905,0.0946,0.0989,0.1026,0.0996,0.0772,0.0572,0.028,0.0142,0.0001,-0.0041,-0.0037,-0.0003,0.001,-0.0009,-0.0006,-0.0035,-0.0034,-0.0034,-0.0034,-0.0034,0.0505,0.055,0.0615,0.0702,0.0777,0.0876,0.0954,0.1035,0.1132,0.1188,0.1153,0.1107,0.0871,0.0503,0.0258,-0.001,0.0002,-0.0087,-0.0085,-0.0083,-0.0063,-0.0052,-0.0106,-0.0106,-0.0106,-0.0107,-0.0107,0,0.0555,0.0604,0.0686,0.0788,0.0881,0.091,0.1042,0.1121,0.1237,0.126,0.128,0.1064,0.0833,0.0549,0.0161,-0.006,-0.0073,-0.0135,-0.0099,-0.0096,-0.0094,-0.0074,-0.012,-0.0121,-0.0122,-0.0122,0,0,0.058,0.0663,0.0706,0.0856,0.093,0.1056,0.1136,0.1245,0.1298,0.1339,0.1298,0.1223,0.0898,0.0617,0.0314,0.009,0.0047,0.0047,0.0084,0.0165,0.017,-0.0039,-0.0002,0,0,0,0,0]}],[{"header":{"parameterUnit":"m.s-1","parameterCategory":2,"la1":30.2991,"la2":30.254,"lo1":-89.0895,"lo2":-89.0444,"dy":0.0017,"dx":0.0017,"nx":28,"ny":28,"refTime":"2025-12-05T03:00:00:Z","depth":"4","parameterNumber":2,"parameterNumberName":"U-component_of_CURRENTS"},"data":[0,0,0,0,0,0,0,0,0,0,0,0,0,0,0,0,0,0,0,0,0,0,0,0,0,0,0,0,0,0,0,0,0,0,0,0,0,0,0,0,0,0,0,0,0,0,0,0,0,0,0,0,0,0,0,0,0,0,0.1375,0.1376,0,0.1419,0.1419,0.1419,0.1458,0.1459,0.146,0.146,0.1514,0.1515,0.1515,0,0,0,0,0,0,0,0,0,0,0,0,0,0.1337,0.1337,0.1375,0.1376,0.1377,0.1419,0.1419,0.142,0.1458,0.1459,0.146,0.146,0.1513,0.1514,0.1516,0,0,0,0,0,0,0,0,0,0,0,0,0,0.1363,0.1337,0.1375,0.1402,0.1405,0.1419,0.1419,0.142,0.1458,0.1459,0.146,0.1461,0.1513,0.1514,0.1516,0.1506,0,0,0.152,0.152,0,0,0,0,0,0,0,0,0.1361,0.1364,0.1397,0.14,0.1404,0.1435,0.1425,0.145,0.1458,0.1436,0.146,0.1461,0.1489,0.1492,0.1496,0.1509,0.1511,0.152,0.1521,0.1521,0.1522,0,0,0,0,0,0,0,0.1359,0.1362,0.1391,0.1398,0.1402,0.1416,0.142,0.143,0.1456,0.1438,0.1442,0.1448,0.149,0.1495,0.1498,0.1512,0.152,0.1521,0.1522,0.1522,0.1619,0.162,0,0,0,0,0,0,0.1355,0.136,0.139,0.1392,0.1386,0.1416,0.1421,0.1423,0.1456,0.1462,0.1448,0.145,0.1492,0.1496,0.15,0.1577,0.1521,0.1522,0.1523,0.1617,0.1619,0.1621,0,0,0,0,0,0,0.1354,0.1357,0.1388,0.1379,0.1384,0.1416,0.1418,0.1423,0.146,0.1463,0.1469,0.1483,0.1493,0.1498,0.154,0.1576,0.1523,0.1524,0.1615,0.1617,0.162,0.1676,0,0,0,0,0,0,0.1353,0.1356,0.1374,0.1378,0.1384,0.1414,0.1417,0.1424,0.1462,0.1466,0.1494,0.1498,0.1494,0.1538,0.1541,0.1577,0.1525,0.1612,0.1616,0.1619,0.1672,0.1681,0.1688,0,0,0,0,0,0.1351,0.1362,0.1374,0.1379,0.1401,0.1415,0.142,0.1444,0.1463,0.1481,0.1507,0.1499,0.1562,0.1541,0.1544,0.1581,0.1611,0.1615,0.1619,0.1669,0.1679,0.1688,0,0,0,0,0,0,0.1357,0.1368,0.138,0.1397,0.1416,0.1423,0.1448,0.1463,0.1497,0.1514,0.1517,0.1523,0.1575,0.1571,0.1547,0.162,0.1587,0.1592,0.1624,0.1633,0.1641,0.1645,0.1526,0,0,0,0,0,0.1365,0.1379,0.1391,0.1409,0.1421,0.1442,0.1459,0.1476,0.1498,0.1516,0.1536,0.1563,0.1588,0.1606,0.1623,0.1659,0.1658,0.1688,0.1695,0.1702,0.1709,0.1743,0.1754,0.1634,0.1634,0.1634,0,0,0.1373,0.1383,0.1393,0.1413,0.1433,0.1453,0.1455,0.149,0.1517,0.1515,0.1573,0.1592,0.1604,0.1648,0.1671,0.1653,0.1736,0.1707,0.1712,0.1716,0.1748,0.176,0.177,0.1637,0.1636,0.1636,0,0,0.1386,0.1408,0.1422,0.144,0.1474,0.1485,0.1503,0.1531,0.1559,0.1606,0.1617,0.1661,0.1696,0.1714,0.1725,0.1786,0.1777,0.1799,0.1841,0.1874,0.1884,0.1893,0.1904,0.1914,0.1802,0.1802,0.1802,0,0.1403,0.1416,0.1431,0.145,0.1473,0.1503,0.1528,0.1556,0.1599,0.1629,0.1636,0.1716,0.1727,0.178,0.1804,0.1804,0.1815,0.1802,0.1884,0.1892,0.19,0.191,0.1919,0.1805,0.1805,0.1804,0.1804,0,0.1413,0.1441,0.1455,0.1488,0.1514,0.1544,0.1577,0.1621,0.1663,0.1691,0.1768,0.1789,0.1838,0.1851,0.1847,0.1915,0.1902,0.1889,0.1857,0.1916,0.1922,0.1931,0.181,0.1808,0.1808,0.1807,0,0,0.1406,0.1453,0.1464,0.1487,0.154,0.1557,0.1617,0.1672,0.1723,0.1777,0.1841,0.1894,0.1922,0.1937,0.1947,0.1975,0.2038,0.1963,0.1963,0.1968,0.2106,0.1958,0.1953,0.2044,0.2046,0.2048,0.2086,0,0.1417,0.1453,0.148,0.1531,0.1552,0.1604,0.1654,0.1713,0.1773,0.1842,0.1888,0.1953,0.195,0.1987,0.2019,0.2038,0.2065,0.2028,0.2053,0.2053,0.191,0.196,0.2054,0.2092,0.2094,0.2096,0.2097,0,0.1414,0.1441,0.1487,0.1551,0.1569,0.1613,0.1706,0.1756,0.1854,0.1905,0.1983,0.202,0.209,0.207,0.2139,0.2119,0.2123,0.2126,0.2127,0.1975,0.1922,0.2023,0.2112,0.2111,0.211,0.2109,0.2108,0,0.1382,0.1446,0.1485,0.1506,0.1583,0.1632,0.1688,0.1786,0.1844,0.1958,0.2015,0.2095,0.215,0.2177,0.2194,0.218,0.2246,0.2222,0.2091,0.208,0.2176,0.2166,0.2266,0.2266,0.2266,0.2266,0.2266,0,0.1362,0.1398,0.148,0.1499,0.1566,0.1628,0.1718,0.1787,0.1896,0.1961,0.2053,0.2103,0.2184,0.2226,0.2223,0.2181,0.2275,0.2104,0.2084,0.2198,0.2191,0.2182,0.2171,0.2267,0.2267,0.2267,0.2266,0,0.1312,0.1366,0.1417,0.1512,0.155,0.1602,0.173,0.1783,0.1901,0.1989,0.203,0.2141,0.2185,0.2232,0.2275,0.2204,0.2184,0.2144,0.2265,0.225,0.1987,0.198,0.1997,0.1992,0.1988,0.1984,0.1981,0,0.1284,0.1306,0.1417,0.1454,0.1506,0.1595,0.1652,0.1778,0.183,0.1983,0.2004,0.2103,0.2153,0.2095,0.2154,0.2136,0.2107,0.2082,0.203,0.1983,0.1963,0.1961,0.196,0.1975,0.1974,0.1973,0.1972,0,0.1231,0.1288,0.133,0.1408,0.1475,0.1536,0.1626,0.1653,0.1783,0.1907,0.1928,0.1943,0.1985,0.1999,0.2004,0.1986,0.2089,0.2039,0.2047,0.1997,0.1957,0.194,0.1943,0.1958,0.196,0.1961,0.1962,0,0.12,0.1217,0.1284,0.1341,0.1419,0.1444,0.1505,0.1551,0.1616,0.1772,0.1771,0.1864,0.1965,0.1921,0.1923,0.1897,0.186,0.1787,0.1807,0.1823,0.1746,0.1668,0.1567,0,0,0,0,0,0.1157,0.1161,0.1207,0.1253,0.1324,0.1369,0.1466,0.1525,0.1647,0.1615,0.1689,0.1712,0.1713,0.1761,0.1697,0.1842,0.1869,0.1758,0.1797,0.1879,0.1896,0.1819,0,0,0,0,0,0,0.1124,0.1163,0.1172,0.1168,0.1182,0.1242,0.1298,0.1381,0.1369,0.1498,0.1508,0.1603,0.1632,0.173,0.1663,0.1676,0.1662,0.182,0.1815,0.187,0.1885,0.1898,0.1825,0,0,0,0,0]},{"header":{"parameterUnit":"m.s-1","parameterCategory":2,"la1":30.2991,"la2":30.254,"lo1":-89.0895,"lo2":-89.0444,"dy":0.0017,"dx":0.0017,"nx":28,"ny":28,"refTime":"2025-12-05T03:00:00:Z","depth":"4","parameterNumber":3,"parameterNumberName":"V-component_of_CURRENTS"},"data":[0,0,0,0,0,0,0,0,0,0,0,0,0,0,0,0,0,0,0,0,0,0,0,0,0,0,0,0,0,0,0,0,0,0,0,0,0,0,0,0,0,0,0,0,0,0,0,0,0,0,0,0,0,0,0,0,0,0,0.0268,0.0268,0,0.026,0.026,0.026,0.0252,0.0252,0.0252,0.0252,0.0241,0.0241,0.0241,0,0,0,0,0,0,0,0,0,0,0,0,0,0.0246,0.0247,0.0268,0.0268,0.0268,0.026,0.026,0.026,0.0252,0.0252,0.0252,0.0252,0.0241,0.0241,0.0241,0,0,0,0,0,0,0,0,0,0,0,0,0,0.0249,0.0247,0.0268,0.0263,0.0263,0.026,0.026,0.026,0.0252,0.0252,0.0252,0.0252,0.0241,0.0241,0.0241,0.0242,0,0,0.024,0.024,0,0,0,0,0,0,0,0,0.0249,0.025,0.0264,0.0264,0.0263,0.0257,0.0248,0.0254,0.0252,0.0256,0.0252,0.0252,0.0246,0.0246,0.0244,0.0241,0.0241,0.024,0.024,0.024,0.0239,0,0,0,0,0,0,0,0.0249,0.025,0.0265,0.0264,0.0263,0.0251,0.0251,0.0249,0.0252,0.0256,0.0255,0.0254,0.0246,0.0245,0.0244,0.0241,0.024,0.024,0.0239,0.0239,0.0235,0.0235,0,0,0,0,0,0,0.0252,0.025,0.0265,0.0265,0.0255,0.0252,0.0252,0.0259,0.0252,0.0251,0.0254,0.0254,0.0245,0.0244,0.0244,0.0253,0.024,0.0239,0.0239,0.0235,0.0235,0.0235,0,0,0,0,0,0,0.0251,0.0253,0.0266,0.0256,0.0257,0.0252,0.026,0.0259,0.026,0.0251,0.025,0.0257,0.0245,0.0244,0.0246,0.0252,0.0239,0.0239,0.0235,0.0235,0.0235,0.0266,0,0,0,0,0,0,0.0251,0.0254,0.026,0.0257,0.0258,0.027,0.026,0.0259,0.026,0.0259,0.0253,0.0252,0.0245,0.0246,0.0245,0.0251,0.0239,0.0235,0.0235,0.0235,0.0265,0.0267,0.0269,0,0,0,0,0,0.025,0.0263,0.0261,0.0263,0.0268,0.0271,0.027,0.0265,0.026,0.0265,0.0259,0.0252,0.0246,0.0246,0.0245,0.0251,0.0235,0.0235,0.0235,0.0264,0.0267,0.0269,0,0,0,0,0,0,0.0257,0.0264,0.0261,0.0275,0.0274,0.027,0.0274,0.0269,0.0268,0.0266,0.0256,0.0255,0.0257,0.0249,0.025,0.0249,0.0238,0.0238,0.026,0.0263,0.0265,0.0274,0.0238,0,0,0,0,0,0.0261,0.0274,0.0273,0.0284,0.0286,0.028,0.028,0.0276,0.0274,0.0273,0.0268,0.0261,0.0256,0.0256,0.0251,0.0254,0.0234,0.0255,0.0257,0.0259,0.0265,0.0236,0.0236,0.0235,0.0235,0.0235,0,0,0.0266,0.0271,0.0278,0.0286,0.0285,0.0296,0.028,0.0284,0.0292,0.0272,0.0282,0.027,0.0258,0.0261,0.0261,0.0256,0.0248,0.0259,0.0261,0.0266,0.0236,0.0236,0.0236,0.0235,0.0235,0.0235,0,0,0.0284,0.0288,0.0304,0.0308,0.031,0.0308,0.0311,0.0308,0.0307,0.0311,0.0297,0.0289,0.0286,0.0277,0.0273,0.0283,0.0259,0.0279,0.03,0.0272,0.0272,0.0272,0.0243,0.024,0.0281,0.0281,0.0281,0,0.0289,0.0312,0.0308,0.0324,0.0332,0.0317,0.0335,0.0332,0.0329,0.0331,0.0319,0.0306,0.0294,0.0295,0.0297,0.0288,0.0267,0.0294,0.0275,0.0274,0.0273,0.0244,0.024,0.0283,0.0282,0.0282,0.0282,0,0.0319,0.0337,0.0347,0.0366,0.0372,0.0385,0.0381,0.0381,0.0374,0.037,0.0366,0.0342,0.0336,0.0326,0.0316,0.0307,0.0292,0.028,0.027,0.0276,0.0244,0.024,0.0285,0.0284,0.0284,0.0283,0,0,0.0333,0.0364,0.0368,0.0387,0.0397,0.0407,0.0417,0.0425,0.0437,0.0417,0.0424,0.0403,0.0385,0.0378,0.0356,0.033,0.0301,0.0306,0.0304,0.0281,0.0237,0.0223,0.0216,0.0285,0.0284,0.0284,0.0216,0,0.0359,0.0402,0.0409,0.0448,0.047,0.0463,0.0478,0.0479,0.0474,0.0476,0.0439,0.044,0.0407,0.0402,0.037,0.0322,0.0291,0.0321,0.0233,0.023,0.022,0.0211,0.0282,0.0213,0.0212,0.0211,0.021,0,0.0388,0.0415,0.046,0.0497,0.0506,0.0526,0.0547,0.056,0.0552,0.0545,0.0527,0.05,0.0464,0.0431,0.0345,0.0365,0.0306,0.0261,0.0257,0.0232,0.0208,0.0206,0.0202,0.0202,0.0203,0.0204,0.0204,0,0.0405,0.0452,0.0492,0.0505,0.054,0.0557,0.0576,0.0583,0.0604,0.0592,0.0597,0.0546,0.0524,0.0442,0.0346,0.0346,0.0244,0.023,0.0159,0.0157,0.0177,0.0178,0.0165,0.0165,0.0165,0.0165,0.0165,0,0.0432,0.0465,0.0506,0.0529,0.058,0.0591,0.0641,0.0645,0.066,0.0689,0.0639,0.0636,0.0526,0.0454,0.0359,0.0245,0.025,0.0162,0.0139,0.0191,0.0194,0.0173,0.0175,0.0162,0.0163,0.0164,0.0164,0,0.0446,0.0471,0.0524,0.0572,0.0592,0.063,0.0693,0.0727,0.0732,0.0762,0.076,0.0704,0.0608,0.0487,0.0352,0.027,0.0158,0.0115,0.018,0.0162,0.0086,0.009,0.0031,0.003,0.0029,0.0028,0.0028,0,0.0458,0.0487,0.0559,0.0597,0.0624,0.0685,0.0728,0.0759,0.0796,0.0802,0.0813,0.0736,0.0679,0.0478,0.0348,0.0159,0.0131,0.0072,0.0076,0.0089,0.0072,0.0078,0.0083,0.0026,0.0026,0.0026,0.0025,0,0.0482,0.0509,0.0553,0.0632,0.0689,0.0758,0.0818,0.0847,0.0877,0.0883,0.0851,0.0748,0.0636,0.0478,0.0329,0.0196,0.011,0.0062,0.0063,0.0066,0.0082,0.0068,0.0074,0.0022,0.0023,0.0023,0.0023,0,0.0501,0.0535,0.0595,0.0664,0.0738,0.0803,0.0838,0.0872,0.0903,0.0898,0.0886,0.0764,0.0697,0.0496,0.0362,0.0225,0.0189,0.0144,0.014,0.0142,0.0191,0.0228,0.0193,0,0,0,0,0,0.0518,0.0557,0.0623,0.0697,0.077,0.0816,0.0886,0.0912,0.0935,0.0914,0.09,0.0792,0.0592,0.0514,0.0372,0.034,0.0164,0.017,0.011,0.0005,0.0009,0.0046,0,0,0,0,0,0,0.0528,0.059,0.0621,0.0711,0.0765,0.0849,0.0895,0.0914,0.0903,0.09,0.0797,0.075,0.0558,0.0667,0.0366,0.0327,0.0268,0.0081,0.0078,0.0003,0.0006,0.0009,0.0049,0,0,0,0,0]}]]